Regional Weather Roundup
Issued by NWS Northern Indiana

Home | Current Version | Previous Version | Graphics & Text | Print | Product List | Glossary On
Versions: 1 2 3 4 5 6 7 8 9 10 11 12 13 14 15 16 17 18 19 20 21 22 23 24 25 26 27 28 29 30 31 32 33 34 35 36 37 38 39 40 41 42 43 44 45 46 47 48 49 50
000
ASUS43 KIWX 300510
RWRIWX

KIWX WEATHER ROUNDUP
NATIONAL WEATHER SERVICE NORTHERN INDIANA
100 AM EDT SUN APR 30 2017

NOTE: "FAIR" INDICATES FEW OR NO CLOUDS BELOW 12,000 FEET WITH NO
SIGNIFICANT WEATHER AND/OR OBSTRUCTIONS TO VISIBILITY.

* THESE STATIONS ARE NOT UNDER NWS QUALITY CONTROL. THEY ALSO MAY NOT
  REPORT WEATHER SUCH AS PRECIPITATION OR FOG.

INZ001>027-300600-
NORTHERN INDIANA

CITY           SKY/WX    TMP DP  RH WIND       PRES   REMARKS
GARY*          DRIZZLE   49  47  95 NE12      29.96F
VALPARAISO     CLOUDY    48  45  89 E12       29.95S
MICHIGAN CITY* CLOUDY    45  43  93 E9        29.97S
LAPORTE*       CLOUDY    46  42  86 E16       29.96F
KNOX*          CLOUDY    46  32  57 E16G22    29.93F
SOUTH BEND     CLOUDY    44  41  89 E20G30    29.97R
GOSHEN         LGT RAIN  43  38  82 E24G33    29.97F
MONTICELLO*    LGT RAIN  51  49  95 E7        29.90F
LOGANSPORT*    CLOUDY    48  48 100 E16       29.92F
ROCHESTER*     CLOUDY    50  48  93 SE15      29.95S
WARSAW*        LGT RAIN  43  41  93 E21G28    29.95F
ANGOLA*        MOCLDY    41  30  65 E10       30.11S
FORT WAYNE     TSTM      47  42  83 E20       30.05F
HUNTINGTON*    CLOUDY   N/A N/A N/A E13G24    30.01F
PERU/GRISSOM   CLOUDY    50  50 100 E15G26    29.91F
MARION*        CLOUDY    48  48 100 E18       29.98F

$$
INZ028>050-300600-
CENTRAL INDIANA

CITY           SKY/WX    TMP DP  RH WIND       PRES   REMARKS
LAFAYETTE      LGT RAIN  53  53 100 E9        29.87F
KOKOMO*        CLOUDY    50  48  93 E18       29.94F
MUNCIE*        LGT RAIN  49  47  93 E17       29.99F
INDIANAPOLIS   TSTM      59  58  96 E12       29.93F FOG

$$
MIZ043>046-050>051-056>058-064>065-071>073-077>080-300600-
SOUTHWEST LOWER MICHIGAN

CITY           SKY/WX    TMP DP  RH WIND       PRES   REMARKS
BATTLE CREEK   RAIN      43  38  82 E5        30.11R
BENTON HARBOR  CLOUDY    47  40  76 E22G35    29.99F
COLDWATER*     HVY RAIN  42  38  87 SE7G24    30.13R
HILLSDALE*     LGT RAIN  43  32  65 E18G25    30.03F
HOLLAND        RAIN      43  39  86 E20G28    30.07R
GRAND RAPIDS   HVY RAIN  41  41 100 E20G26    30.08F FOG
KALAMAZOO      RAIN      43  38  82 E6        30.08R
STURGIS*       RAIN      41  39  93 E18       30.04F
THREE RIVERS*  LGT RAIN  43  38  83 E20G25    30.05F

$$
OHZ001>008-015>018-024>025-300600-
NORTHWEST OHIO

CITY           SKY/WX    TMP DP  RH WIND       PRES   REMARKS
WAUSEON*       CLOUDY    43  39  87 E17G26    30.04F
DEFIANCE       TSTM      44  39  82 VRB7G20   30.15R
FINDLAY        CLOUDY    47  39  74 E15       30.03F
TOLEDO EXPRESS CLOUDY    44  40  85 E16G22    30.06F
TOLEDO METCALF CLOUDY    47  40  76 E12G23    30.11F
LIMA           LGT RAIN  46  44  93 E18       29.99F

$$
AND FOR LAKE MICHIGAN COASTAL AND OPEN LAKE BUOY OBSERVATIONS

STATION/POSITION TEMP    WIND        PRES    VSBY  WAVE
                 AIR SEA DIR/SP/G                  HT/PER
                 (F)     (DEG/KT/KT) (MB)    (MI)  (FT/S)
CALUMET HARBOR    45      30/ 15/ 19 1014.0F
MICHIGAN CITY     47      60/ 14/ 19   N/A
BURNS HARBOR      47      90/ 13/ 20 1014.9F
SOUTH LAKE BUOY   42 41   50/ 25/ 31 1015.9          5/ 6
4 MI NW BRIDGMAN  47 47  130/ 23/ 33 1015.0          6/ 6
MICHIGAN CITY     47 47                N/A           7/ 7

$$
&&



USA.gov is the U.S. government's official web portal to all federal, state and local government web resources and services.